User: anonymous   Login
Location: Unspecified
(0.0000°N, 0.0000°E)
Time: 04:33:35
(UTC+00:00)
Language:

ELEKTRO-L - Orbit

View from above orbital plane
View from above orbital plane
View from above satellite
View from above satellite

Ground track
Ground track

The orbit data is extracted from the following two-line orbital elements,

1 37344U 11001A   17055.87111150 -.00000216  00000-0  00000+0 0  9995
2 37344   2.2105  78.3568 0004428 268.3862  94.6370  1.00236673 22385
Epoch (UTC): 24 February 2017 20:54:24
Eccentricity: 0.0004428
inclination: 2.2105°
perigee height: 35777 km
apogee height: 35815 km
right ascension of ascending node: 78.3568°
argument of perigee: 268.3862°
revolutions per day: 1.00236673
mean anomaly at epoch: 94.6370°
orbit number at epoch: 2238

The dashed part of the orbit path shows where the satellite is in the earth's shadow,  

DLR